STARLINK-1338, 45532

Orbit data source: Space-Track

STARLINK-1338, 45532 is a payload satellite owned by SpaceX/Seattle (US) in LEO that was launched on Wed, 22 Apr 2020 UTC via an FALCON 9 launch vehicle from the Air Force Eastern Test Range (AFETR). Payload-class satellites include a variety of spacecraft equipped with specific instruments for various scientific and technological missions. These include communications satellites like Starlink; space stations such as the ISS; scientific satellites like the Hubble; Earth observation satellites from companies like Planet Labs, Umbra, and HawkEye 360; GPS; miniature CubeSats for education and research; and military/defense satellites.

Loading next visibility...
Identifier
45532, 2020-025B
Orbit
LEO
Country
Flag of USUS
Related business
Manufacturer
SpaceX/Seattle
Mission
Partially operational Commercial Communications
Bus & Motor
STARLINK, Unknown motor
Mass
260 kg wet, ~248 kg dry
Launch date (UTC)
2020-04-22 (6 years ago)
Launch vehicle
FALCON 9
Launch site
Air Force Eastern Test Range (AFETR)
Object type
Payload
Rocket body
Debris
Shape & HBR
Box + 1 Pan, 10.1 m
Radar Cross Section
13.562 m², Large (>1 m²)

Expand to show TLE details & history
Last TLE update: 14 hours ago

TLE from 14 hours ago
0 STARLINK-1338
1 45532U 20025B   26123.42640723  .00057624  00000-0  58654-3 0  9995
2 45532  53.0444 178.2285 0003891 358.4928   1.6074 15.64596340333947
Epoch: 2026-05-03T10:14Z
TLE epoch observation values (Epoch: 2026-05-03T10:14:01.584Z)
Latitude
-0.00001°
Longitude
163.39176°
Altitude
372.674 km
Speed
7.689 km/s
True Right ascension
11h 52m 54s
True Declination
0° 00' 00"
Sunlit
Object was in full shadow at epoch
Visualization orbit readout
Latitude
Unknown
Longitude
Unknown
Altitude
Unknown
Speed
Unknown
Apparent Right ascension
Unknown
Apparent Declination
Unknown
Sunlit
N/A
Visualization observer readout
Local Sidereal Time
08:18:27
Azimuth
Unknown
Elevation
Unknown
Doppler factor
Unknown
Orbital elements
Apogee altitude
377.307 km
Perigee altitude
372.052 km
Semi-major axis
6,752.816 km
Eccentricity
0.00039
Inclination
53.0444°
RAAN
178.2285°
Arg. of periapsis
358.4928°
True anomaly
1.60865°
Mean anomaly
1.6074°
Eccentric anomaly
1.60803°
Mean motion
3.91125 °/min
Orbital period
92.04 mins
BSTAR
0.00058654
Loading maneuver chart data...
Computing Atmospheric mass density...
Loading historical data...
Loading historical data...
Loading historical data...
Loading historical data...
Loading historical data...
Loading historical data...
Loading historical data...

Documentation

Showing up to 5 results
|